Terug naar catalogus

THOR AGENA D R/B

ActiefPO
NORAD 733·ROCKET BODY·🇺🇸 United States

Gelanceerd Jan 19, 1964 vanaf Vandenberg Space Force Base

Loading…

Volgende Passages (komende 24 uur)

TLE

VersSource: Space-Track

Epoch: Sep 14, 2026, 21:09 UTC

1 00733U 64002A   26257.88178137  .00000111  00000-0  56797-4 0  9991
2 00733  99.1137 281.4463 0033751  68.4243 292.0531 14.34094538265410

Volg THOR AGENA D R/B in realtime met AllMySat

Download on the App Store